Location: Shannon
(40.5500°S, 175.4167°E)
Time: 12:08:36
(UTC+00:00)

Cosmos 2263 Rocket - Pass Details

Date: 17 November 2025
Orbit: 822 x 847 km, 71.0° (Epoch: 10 December)

Event Time Altitude Azimuth Distance (km) Brightness Sun altitude
Exits shadow 13:51:09 57° 23° (NNE) 1,004 2.3 -25.3°
Maximum altitude 13:52:05 66° 70° (ENE) 930 2.3 -25.2°
Drops below altitude 10° 13:57:46 10° 151° (SSE) 2,495 5.7 -24.7°
Sets 14:00:15 0° 153° (SSE) 3,433 6.8 -24.4°
